When you browse on this site, cookies collect data to enhance your experience and personalize the content and advertising you see.
Visit our Privacy Policy to learn more. By continuing to use the site, you agree to this use of cookies and data.
  • En España
  • Lista de países
  • Para 7 días
  • Temperatura del agua
  • Mapa Satelital
  • El tiempo en el mapa
  • Informadores
  • user-avatar
    Iniciar sesión

    Tiempo cada hora Zawtat

    Hoy, 18 Junio, Martes

    Tiempo Temperatura Precipitaciones Viento Presión Humedad
    00:00 +22°C° 0.3 mm 1 mps 738 mmHg 82%
    01:00 +21°C° 0.3 mm 1 mps 738 mmHg 83%
    02:00 +20°C° 0.1 mm 2 mps 738 mmHg 83%
    03:00 +20°C° 0.1 mm 2 mps 738 mmHg 82%
    04:00 +20°C° 0.1 mm 2 mps 738 mmHg 82%
    05:00 +21°C° 0.2 mm 2 mps 738 mmHg 81%
    06:00 +23°C° 0.2 mm 2 mps 738 mmHg 79%
    07:00 +24°C° 0.2 mm 1 mps 738 mmHg 78%
    08:00 +25°C° 0.3 mm 1 mps 738 mmHg 75%
    09:00 +26°C° 0.3 mm 1 mps 738 mmHg 71%
    10:00 +27°C° 0.3 mm 1 mps 738 mmHg 68%
    11:00 +27°C° 0.3 mm 1 mps 738 mmHg 67%
    12:00 +28°C° 0.3 mm 1 mps 738 mmHg 66%
    13:00 +28°C° 0.3 mm 1 mps 738 mmHg 66%
    14:00 +28°C° 0.3 mm 1 mps 738 mmHg 66%
    15:00 +28°C° 0.3 mm 1 mps 738 mmHg 66%
    16:00 +28°C° 0.3 mm 1 mps 737 mmHg 67%
    17:00 +27°C° 0.2 mm 1 mps 737 mmHg 71%
    18:00 +25°C° 0.2 mm 1 mps 737 mmHg 76%
    19:00 +24°C° 0.2 mm 1 mps 737 mmHg 80%
    20:00 +23°C° 0 mm 1 mps 737 mmHg 81%
    21:00 +22°C° 0 mm 1 mps 738 mmHg 81%
    22:00 +22°C° 0 mm 1 mps 738 mmHg 82%
    23:00 +21°C° 0 mm 1 mps 738 mmHg 82%

    Mañana, 19 Junio, Miércoles

    Tiempo Temperatura Precipitaciones Viento Presión Humedad
    00:00 +21°C° 0 mm 1 mps 738 mmHg 82%
    01:00 +20°C° 0 mm 1 mps 738 mmHg 82%
    02:00 +20°C° 0 mm 1 mps 737 mmHg 81%
    03:00 +20°C° 0 mm 1 mps 737 mmHg 80%
    04:00 +19°C° 0 mm 2 mps 737 mmHg 80%
    05:00 +21°C° 0 mm 1 mps 737 mmHg 77%
    06:00 +23°C° 0 mm 1 mps 737 mmHg 75%
    07:00 +24°C° 0 mm 1 mps 737 mmHg 73%
    08:00 +26°C° 0 mm 1 mps 737 mmHg 68%
    09:00 +27°C° 0 mm 1 mps 737 mmHg 63%
    10:00 +28°C° 0 mm 1 mps 737 mmHg 59%
    11:00 +28°C° 0.1 mm 2 mps 737 mmHg 61%
    12:00 +28°C° 0.1 mm 2 mps 737 mmHg 63%
    13:00 +28°C° 0.1 mm 2 mps 737 mmHg 65%
    14:00 +28°C° 0.1 mm 2 mps 736 mmHg 65%
    15:00 +28°C° 0.1 mm 2 mps 736 mmHg 66%
    16:00 +28°C° 0.1 mm 2 mps 736 mmHg 66%
    17:00 +26°C° 0.1 mm 2 mps 736 mmHg 71%
    18:00 +25°C° 0.1 mm 2 mps 736 mmHg 75%
    19:00 +24°C° 0.1 mm 2 mps 736 mmHg 79%
    20:00 +23°C° 0 mm 2 mps 737 mmHg 78%
    21:00 +21°C° 0 mm 2 mps 737 mmHg 76%
    22:00 +21°C° 0 mm 2 mps 737 mmHg 75%
    23:00 +20°C° 0 mm 2 mps 737 mmHg 76%

    Pasado mañana, 20 Junio, Jueves

    Tiempo Temperatura Precipitaciones Viento Presión Humedad
    00:00 +21°C° 0 mm 1 mps 737 mmHg 77%
    01:00 +20°C° 0 mm 1 mps 736 mmHg 78%
    02:00 +20°C° 0 mm 1 mps 736 mmHg 79%
    03:00 +20°C° 0 mm 1 mps 736 mmHg 79%
    04:00 +20°C° 0 mm 1 mps 736 mmHg 80%
    05:00 +22°C° 0 mm 1 mps 736 mmHg 77%
    06:00 +23°C° 0 mm 1 mps 737 mmHg 74%
    07:00 +25°C° 0 mm 1 mps 737 mmHg 71%
    08:00 +26°C° 0 mm 1 mps 737 mmHg 68%
    09:00 +27°C° 0 mm 1 mps 737 mmHg 66%
    10:00 +28°C° 0 mm 2 mps 737 mmHg 63%
    11:00 +28°C° 0 mm 1 mps 737 mmHg 64%
    12:00 +28°C° 0 mm 1 mps 736 mmHg 64%
    13:00 +29°C° 0 mm 1 mps 736 mmHg 64%
    14:00 +28°C° 0 mm 2 mps 736 mmHg 65%
    15:00 +28°C° 0 mm 2 mps 736 mmHg 66%
    16:00 +28°C° 0 mm 2 mps 736 mmHg 67%
    17:00 +27°C° 0 mm 2 mps 736 mmHg 72%
    18:00 +26°C° 0 mm 1 mps 736 mmHg 78%
    19:00 +24°C° 0 mm 1 mps 736 mmHg 83%
    20:00 +24°C° 0 mm 1 mps 737 mmHg 83%
    21:00 +23°C° 0 mm 1 mps 737 mmHg 84%
    22:00 +22°C° 0 mm 1 mps 737 mmHg 84%
    23:00 +22°C° 0 mm 1 mps 737 mmHg 85%

    21 Junio, Viernes

    Tiempo Temperatura Precipitaciones Viento Presión Humedad
    00:00 +22°C° 0 mm 1 mps 737 mmHg 85%
    01:00 +21°C° 0 mm 1 mps 737 mmHg 86%
    02:00 +21°C° 0 mm 1 mps 737 mmHg 86%
    03:00 +21°C° 0 mm 1 mps 737 mmHg 85%
    04:00 +21°C° 0 mm 1 mps 737 mmHg 85%
    05:00 +22°C° 0 mm 1 mps 737 mmHg 81%
    06:00 +24°C° 0 mm 1 mps 738 mmHg 77%
    07:00 +26°C° 0 mm 1 mps 738 mmHg 73%
    08:00 +27°C° 0 mm 1 mps 738 mmHg 70%
    09:00 +28°C° 0 mm 1 mps 738 mmHg 67%
    10:00 +29°C° 0 mm 2 mps 738 mmHg 63%
    11:00 +29°C° 0 mm 2 mps 738 mmHg 62%
    12:00 +30°C° 0 mm 2 mps 738 mmHg 60%
    13:00 +30°C° 0 mm 1 mps 738 mmHg 58%
    14:00 +30°C° 0 mm 2 mps 738 mmHg 59%
    15:00 +30°C° 0 mm 2 mps 737 mmHg 60%
    16:00 +30°C° 0 mm 2 mps 737 mmHg 61%
    17:00 +28°C° 0 mm 2 mps 737 mmHg 66%
    18:00 +27°C° 0 mm 2 mps 737 mmHg 71%
    19:00 +25°C° 0 mm 1 mps 737 mmHg 77%
    20:00 +25°C° 0 mm 1 mps 738 mmHg 76%
    21:00 +24°C° 0 mm 1 mps 738 mmHg 75%
    22:00 +23°C° 0 mm 1 mps 739 mmHg 74%
    23:00 +23°C° 0 mm 1 mps 739 mmHg 74%

    22 Junio, Sábado

    Tiempo Temperatura Precipitaciones Viento Presión Humedad
    00:00 +22°C° 0 mm 1 mps 738 mmHg 73%
    01:00 +22°C° 0 mm 1 mps 738 mmHg 73%
    02:00 +21°C° 0 mm 2 mps 738 mmHg 73%
    03:00 +21°C° 0 mm 2 mps 738 mmHg 73%
    04:00 +20°C° 0 mm 2 mps 738 mmHg 73%
    05:00 +23°C° 0 mm 2 mps 738 mmHg 71%
    06:00 +25°C° 0 mm 1 mps 739 mmHg 69%
    07:00 +26°C° 0 mm 1 mps 739 mmHg 67%
    08:00 +28°C° 0 mm 1 mps 739 mmHg 61%
    09:00 +29°C° 0 mm 1 mps 739 mmHg 54%
    10:00 +31°C° 0 mm 1 mps 739 mmHg 48%
    11:00 +31°C° 0 mm 1 mps 739 mmHg 49%
    12:00 +31°C° 0 mm 1 mps 739 mmHg 51%
    13:00 +31°C° 0 mm 1 mps 739 mmHg 53%
    14:00 +31°C° 0 mm 1 mps 738 mmHg 54%
    15:00 +30°C° 0 mm 1 mps 738 mmHg 56%
    16:00 +30°C° 0 mm 1 mps 738 mmHg 57%
    17:00 +29°C° 0 mm 1 mps 738 mmHg 61%
    18:00 +26°C° 0 mm 0 mps 738 mmHg 65%
    19:00 +24°C° 0 mm 0 mps 738 mmHg 68%
    20:00 +24°C° 0 mm 0 mps 739 mmHg 70%
    21:00 +25°C° 0 mm 1 mps 739 mmHg 71%
    22:00 +24°C° 0 mm 1 mps 739 mmHg 72%
    23:00 +24°C° 0 mm 1 mps 739 mmHg 71%

    23 Junio, Domingo

    Tiempo Temperatura Precipitaciones Viento Presión Humedad
    00:00 +24°C° 0 mm 1 mps 739 mmHg 70%
    01:00 +23°C° 0 mm 2 mps 739 mmHg 69%
    02:00 +23°C° 0 mm 2 mps 739 mmHg 68%
    03:00 +23°C° 0 mm 2 mps 739 mmHg 68%
    04:00 +23°C° 0 mm 2 mps 738 mmHg 68%
    05:00 +24°C° 0 mm 2 mps 739 mmHg 67%
    06:00 +26°C° 0 mm 1 mps 739 mmHg 67%
    07:00 +27°C° 0 mm 1 mps 740 mmHg 66%
    08:00 +29°C° 0 mm 1 mps 740 mmHg 61%
    09:00 +30°C° 0 mm 1 mps 740 mmHg 56%
    10:00 +31°C° 0 mm 1 mps 740 mmHg 51%
    11:00 +31°C° 0 mm 1 mps 740 mmHg 51%
    12:00 +31°C° 0 mm 1 mps 740 mmHg 51%
    13:00 +31°C° 0 mm 1 mps 740 mmHg 51%
    14:00 +31°C° 0 mm 1 mps 740 mmHg 53%
    15:00 +31°C° 0 mm 1 mps 740 mmHg 54%
    16:00 +31°C° 0 mm 2 mps 740 mmHg 56%
    17:00 +30°C° 0 mm 2 mps 740 mmHg 62%
    18:00 +28°C° 0 mm 1 mps 740 mmHg 67%
    19:00 +27°C° 0 mm 1 mps 740 mmHg 73%
    20:00 +26°C° 0 mm 1 mps 740 mmHg 74%
    21:00 +25°C° 0 mm 1 mps 740 mmHg 74%
    22:00 +24°C° 0 mm 1 mps 741 mmHg 75%
    23:00 +24°C° 0 mm 2 mps 741 mmHg 75%
    Mostrar más